Temperature
8 6 6 6 7 8 8 7 7 8 8 7 6 6 7 7 6 6 6 7 7 8 8 8 8 8 8 8 8 8 8 8 8 8 8 8 8 8 8 8 8 8 8 8
6 6 6 7 7 7 7 7 6 7 7 7 6 6 6 6 6 6 6 6 7 7 7 7 8 8 8 8 8 8 8 8 8 8 7 7 7 7 7 7 7 7 7 7
6 6 7 7 7 7 6 6 6 6 6 6 6 5 6 6 6 6 6 6 7 7 7 7 7 7 7 7 7 7 7 7 7 7 7 7 7 7 7 7 7 7 7 7
5 6 7 7 6 6 6 6 6 6 5 4 5 5 5 5 5 5 5 6 6 6 6 6 7 7 7 7 7 7 7 7 7 6 6 6 6 6 6 6 6 6 6 6
5 6 6 6 6 6 6 6 5 5 5 4 4 4 5 4 5 5 5 5 5 6 6 6 6 6 7 7 6 6 6 6 6 6 6 6 6 6 6 6 6 6 6 6
5 5 5 5 6 6 5 5 4 3 3 4 4 4 4 4 5 5 4 4 5 5 5 5 6 6 6 6 6 6 6 6 5 5 5 5 5 5 5 5 5 5 5 5
4 5 5 5 5 5 4 4 4 4 4 4 4 4 4 4 4 4 4 4 4 4 4 4 5 5 5 5 5 5 5 5 5 5 5 5 5 5 5 5 5 5 5 5
4 4 4 4 4 4 4 4 5 5 4 4 4 4 4 4 3 4 4 4 4 4 4 4 4 4 4 4 4 4 4 4 4 4 4 4 4 4 4 4 4 4 4 4
3 4 4 4 4 4 4 3 4 3 3 3 3 3 3 3 3 2 2 2 2 3 3 3 3 3 4 4 4 4 4 4 4 4 4 4 4 4 4 4 4 4 3 3
3 3 3 3 4 4 4 3 2 3 3 3 3 3 4 4 3 2 1 1 2 2 2 2 2 3 3 3 3 3 3 3 3 3 3 3 3 3 3 3 3 3 3 3
3 2 2 2 2 3 3 3 3 2 2 3 3 4 3 3 2 1 1 2 1 1 1 1 2 2 2 2 2 2 2 2 2 2 2 2 2 2 2 2 2 2 2 2
2 1 1 1 2 2 2 2 2 3 2 1 2 3 2 1 1 1 1 1 1 1 1 1 1 1 1 1 1 1 1 1 1 1 1 1 1 2 2 2 2 2 2 2
1 1 1 2 2 1 1 1 1 1 1 0 1 3 1 0 0 1 1 1 1 0 0 0 0 0 0 0 0 0 0 0 0 0 1 1 1 1 1 1 1 1 1 1
2 0 1 3 3 1 1 1 1 1 1 1 1 2 2 1 -0 -0 -0 0 0 -0 -1 -1 -0 -0 -0 -1 -1 -1 -0 -0 -1 -0 -0 0 0 0 0 0 0 0 0 0
1 -0 -0 0 1 1 1 1 0 0 0 1 1 1 2 1 -0 -0 -0 -1 -1 -1 -1 -1 -1 -1 -1 -1 -1 -1 -1 -1 -1 -1 -1 -1 -1 -1 -1 -1 -0 -0 -0 -0
-1 -1 -1 -1 0 0 0 0 -0 0 0 -0 0 0 0 -0 -0 -1 -1 -2 -2 -2 -2 -2 -2 -2 -2 -2 -2 -2 -2 -2 -2 -2 -2 -2 -2 -2 -1 -1 -1 -1 -1 -1
-2 -2 -1 -1 -1 -0 -0 -0 -0 -1 -1 -1 0 0 -1 -1 -2 -2 -2 -2 -2 -2 -2 -2 -2 -2 -3 -3 -3 -3 -3 -3 -3 -3 -2 -2 -2 -2 -2 -2 -2 -2 -2 -2
-2 -2 -2 -2 -2 -1 0 -1 -1 -1 -1 -2 -1 -1 -2 -2 -2 -2 -2 -2 -2 -2 -3 -3 -3 -3 -3 -3 -3 -3 -3 -3 -3 -3 -3 -3 -3 -3 -3 -3 -3 -3 -3 -3
-2 -2 -2 -2 -2 -2 -1 -1 -2 -2 -2 -2 -2 -2 -3 -3 -3 -3 -2 -2 -2 -3 -3 -3 -3 -4 -4 -4 -4 -4 -4 -4 -4 -4 -4 -4 -4 -4 -4 -3 -3 -3 -3 -3
-3 -3 -2 -3 -2 -2 -0 -2 -2 -2 -2 -3 -3 -4 -4 -4 -4 -3 -2 -3 -3 -3 -4 -4 -4 -4 -4 -4 -5 -5 -5 -5 -5 -5 -5 -5 -5 -4 -4 -4 -4 -4 -4 -4
-4 -4 -3 -3 -3 -3 -2 -3 -2 -1 -1 -3 -3 -4 -4 -5 -3 -3 -3 -3 -4 -4 -4 -4 -5 -5 -5 -5 -5 -6 -6 -6 -6 -6 -6 -6 -6 -5 -5 -5 -5 -5 -5 -5
-4 -4 -4 -4 -3 -2 -3 -4 -3 -3 -3 -3 -3 -4 -4 -4 -4 -4 -4 -4 -4 -5 -5 -5 -5 -6 -6 -6 -6 -6 -6 -7 -7 -7 -7 -7 -7 -6 -6 -6 -6 -6 -6 -6
-5 -4 -4 -4 -3 -3 -4 -3 -3 -3 -3 -3 -4 -4 -4 -5 -5 -5 -5 -5 -5 -5 -6 -6 -6 -6 -7 -7 -7 -7 -7 -7 -7 -8 -7 -8 -8 -7 -7 -7 -7 -7 -7 -7
-6 -6 -5 -5 -5 -5 -4 -4 -4 -4 -4 -4 -4 -4 -4 -5 -5 -6 -6 -6 -6 -6 -7 -7 -7 -7 -7 -8 -8 -8 -8 -8 -8 -8 -8 -8 -8 -8 -8 -8 -8 -8 -8 -8
-6 -7 -6 -6 -6 -6 -5 -4 -4 -4 -4 -4 -5 -5 -5 -5 -6 -6 -6 -6 -7 -7 -7 -8 -8 -8 -8 -8 -9 -9 -9 -9 -9 -9 -9 -9 -9 -9 -9 -9 -9 -9 -8 -9
-7 -7 -6 -5 -6 -6 -6 -5 -5 -5 -5 -5 -5 -6 -6 -6 -6 -7 -7 -7 -7 -8 -8 -8 -9 -9 -9 -9 -9 -9 -10 -10 -10 -10 -10 -10 -10 -10 -10 -10 -9 -9 -9 -9
Wind_Speed
1 3 5 8 8 5 3 4 6 6 3 3 8 11 10 6 5 7 7 6 7 8 6 3 4 4 3 3 4 4 4 3 3 3 3 3 3 2 2 2 3 5 5 6
2 6 8 5 4 4 5 5 6 5 3 3 6 10 9 6 6 7 8 8 8 6 4 3 3 4 4 4 4 4 4 4 3 3 3 3 3 3 2 2 2 4 5 5
7 5 4 5 5 5 7 7 6 5 4 3 4 7 6 4 4 5 6 6 6 7 7 6 5 5 4 5 5 5 4 4 4 3 2 2 2 1 1 1 1 2 4 5
5 5 3 5 6 6 8 6 5 4 2 4 1 5 7 4 4 6 6 5 6 5 5 5 5 5 5 5 4 4 5 4 4 4 4 4 3 3 3 3 3 2 4 4
4 3 4 6 7 7 5 2 3 4 4 3 3 4 8 3 5 7 6 5 5 4 5 5 5 5 5 4 4 4 3 3 3 4 5 5 4 3 2 3 3 3 3 4
4 2 3 4 3 4 2 2 1 1 2 6 7 7 7 5 7 5 3 3 3 3 3 3 2 2 2 2 2 2 3 2 2 3 4 5 4 4 4 4 4 3 3 2
4 4 2 1 1 0 2 3 1 2 2 7 5 6 8 6 5 5 5 4 2 2 2 2 2 1 1 1 2 2 3 2 2 3 3 4 5 5 5 5 5 4 3 3
3 6 4 3 5 5 5 6 5 5 5 5 2 8 6 4 3 2 2 1 1 1 1 2 2 2 2 2 2 2 2 1 1 2 3 3 3 4 4 4 4 5 4 5
5 6 1 2 2 5 4 6 5 3 2 3 6 6 6 2 1 1 1 1 0 1 1 1 1 1 1 1 2 2 2 1 1 1 2 2 2 3 3 3 3 3 3 3
4 4 4 2 0 2 3 5 4 4 4 5 6 6 5 4 4 2 1 2 2 2 1 1 0 0 0 1 1 1 1 1 1 1 1 2 3 3 3 3 4 4 4 4
3 4 3 1 6 7 4 4 4 4 4 5 5 6 4 6 4 4 4 3 3 2 2 1 0 0 1 1 1 1 1 1 1 2 2 2 3 3 3 3 4 5 4 5
4 3 4 7 4 3 5 6 6 5 5 5 4 7 2 3 2 3 3 2 2 2 1 0 0 1 1 1 2 1 1 1 2 2 2 3 3 2 3 4 4 4 5 5
4 4 2 3 2 1 3 4 5 3 3 5 5 7 1 1 0 1 2 2 1 1 0 1 1 1 1 1 1 2 2 2 2 2 2 2 2 3 4 4 4 3 4 4
3 4 7 9 6 4 5 6 6 6 5 7 9 9 6 4 5 4 3 2 2 1 0 0 1 1 1 1 2 2 2 2 3 2 2 2 3 3 4 4 4 3 3 4
2 5 6 9 8 5 8 10 9 11 11 10 10 10 11 8 6 4 3 2 1 1 1 1 1 2 1 2 2 3 3 3 3 2 3 3 3 3 3 3 3 3 3 4
2 4 3 6 6 6 10 11 11 13 11 12 12 13 9 6 3 3 3 3 3 3 3 2 2 2 2 2 3 3 3 3 3 3 3 4 3 3 3 3 3 2 2 3
3 3 2 6 4 4 9 11 11 8 8 9 14 14 5 4 5 6 5 4 4 3 3 3 3 3 3 3 3 3 4 3 3 3 3 3 4 3 4 3 3 3 3 3
6 5 3 3 1 8 9 3 7 9 9 10 8 7 6 6 5 3 3 4 4 4 3 3 3 3 2 2 2 3 2 2 2 3 3 3 3 4 4 3 3 3 3 3
6 6 3 2 4 8 9 4 4 6 8 7 9 8 5 2 1 3 3 3 4 4 3 3 3 2 1 2 2 2 2 2 2 3 3 4 4 4 4 4 4 3 3 3
3 4 4 4 5 7 7 2 1 2 5 3 4 6 3 1 3 6 3 2 2 1 1 1 1 0 1 1 1 1 2 2 3 4 4 4 4 4 4 4 4 3 2 2
3 3 6 6 7 9 6 2 3 4 6 2 3 4 4 5 6 3 1 1 1 1 1 0 0 0 1 1 1 1 2 3 4 4 4 4 4 4 3 3 3 2 2 2
7 6 7 6 6 9 3 4 6 6 1 1 1 2 3 4 2 1 2 2 1 0 1 0 0 1 1 1 1 2 3 4 4 4 4 4 4 3 3 2 2 2 1 1
7 8 6 8 8 3 3 5 3 1 2 2 2 2 2 3 3 3 2 2 1 0 0 0 0 1 2 2 1 2 3 4 4 4 4 4 4 3 3 2 2 2 1 2
4 3 4 5 7 5 4 3 2 2 3 3 3 3 3 3 3 2 2 1 1 0 0 0 0 0 2 2 2 2 3 3 3 3 3 3 3 3 3 2 2 1 2 2
6 4 4 7 6 4 4 4 4 3 2 2 2 2 3 3 3 3 2 2 1 1 0 1 1 1 2 2 2 3 3 2 2 3 3 3 3 3 3 3 2 2 2 3
5 6 6 8 6 5 5 3 3 3 4 4 3 3 2 2 3 2 2 2 1 1 1 0 1 1 2 2 2 3 3 2 2 2 3 2 2 2 2 2 3 5 4 5
Wind_Direction
138 121 205 213 207 214 209 218 247 252 247 225 244 259 266 245 227 232 232 227 226 232 237 211 197 189 182 177 175 174 171 172 159 167 175 174 184 180 160 159 151 161 161 157
84 229 229 219 217 226 242 253 257 278 283 248 266 271 266 243 232 229 225 225 222 225 233 221 203 193 190 192 190 183 183 179 178 187 192 188 181 187 170 154 155 161 159 161
204 229 221 204 216 224 240 232 243 261 318 311 309 294 268 266 240 244 234 229 219 211 212 215 211 206 199 201 202 198 192 183 185 177 155 135 121 125 153 168 190 189 165 164
233 253 217 206 219 205 242 235 236 242 273 277 231 276 269 250 265 255 248 235 227 221 210 206 206 206 206 211 205 198 192 185 181 171 170 166 172 187 194 193 197 204 183 169
241 233 214 219 225 203 227 232 231 227 214 268 233 229 275 255 254 257 249 239 231 223 206 203 206 207 208 204 195 193 185 182 179 178 180 181 184 192 176 169 184 196 192 181
245 248 215 217 231 206 200 58 19 76 145 249 221 202 266 234 228 245 250 243 224 213 202 198 199 181 190 188 183 175 174 180 179 182 185 191 193 189 173 178 191 200 202 197
280 267 249 196 168 266 118 109 347 309 254 245 205 211 247 245 232 223 229 225 204 175 159 150 138 145 146 147 167 172 171 186 188 186 196 207 206 197 193 194 198 203 208 214
236 264 227 204 193 192 198 172 184 220 235 274 241 229 246 247 255 236 195 177 118 130 156 163 171 169 179 179 165 162 174 191 197 205 216 219 218 209 210 208 205 207 211 214
208 247 276 235 205 164 173 206 192 164 241 262 257 274 295 238 293 348 60 80 206 211 162 175 178 155 169 191 186 178 171 185 219 230 232 236 234 237 228 215 209 214 221 217
182 244 265 278 116 232 181 164 135 176 211 247 270 257 237 231 240 249 257 246 255 253 244 213 176 57 213 170 135 124 154 212 251 234 234 251 244 239 249 234 214 218 221 215
177 209 271 269 204 202 170 181 185 185 195 201 253 263 225 205 208 209 231 241 234 230 226 235 286 338 34 43 59 64 53 347 304 280 264 257 256 250 238 240 235 221 217 213
185 178 245 242 243 226 200 197 171 191 230 213 232 264 262 200 216 206 240 262 250 219 203 186 14 32 39 28 12 1 349 325 298 289 275 261 258 251 242 237 242 235 219 215
166 166 267 311 296 221 223 213 194 183 182 201 217 256 281 83 234 237 247 273 280 257 153 72 51 41 3 337 330 327 328 316 310 307 291 282 278 262 254 249 241 240 230 218
175 190 208 225 234 201 230 233 207 190 214 230 231 247 263 273 265 264 260 249 232 229 223 44 356 329 313 319 314 312 321 326 326 319 301 288 283 274 266 264 251 235 234 221
169 227 239 255 259 240 238 242 221 215 218 225 243 243 253 257 252 254 249 236 223 235 253 271 289 300 311 317 317 322 324 327 326 321 311 297 293 292 286 278 267 243 236 234
184 224 246 270 259 249 260 253 233 231 233 238 253 262 260 257 246 251 239 224 232 251 254 267 283 288 288 290 301 309 310 317 321 314 310 314 311 307 303 291 282 258 238 238
192 185 222 265 290 308 265 241 222 221 219 216 237 249 255 255 244 235 228 220 231 247 259 258 255 258 264 270 281 284 297 314 320 319 318 318 317 311 307 301 293 269 248 243
185 185 204 254 328 248 251 226 210 222 240 228 232 250 247 243 245 225 211 211 233 250 259 265 264 267 270 282 294 296 307 308 314 318 315 318 318 313 310 305 290 280 261 248
201 186 191 203 242 271 285 256 198 209 255 236 232 253 267 290 329 274 236 212 220 232 243 246 249 252 264 284 298 314 316 316 320 317 313 313 313 306 304 300 292 285 273 258
160 171 185 197 219 242 252 240 211 134 268 252 216 239 236 133 252 259 227 224 239 270 258 255 275 325 271 299 306 308 304 310 309 308 306 308 307 299 294 290 291 289 282 269
163 187 206 215 232 259 259 234 126 181 253 250 207 223 206 209 232 256 191 222 230 280 280 251 127 245 280 306 331 306 303 303 307 310 312 315 311 300 291 296 293 292 292 294
187 189 202 192 217 250 218 142 183 222 254 212 225 220 216 234 259 245 222 217 220 313 335 59 62 336 328 328 330 306 306 316 322 321 322 322 319 307 303 295 294 297 287 283
202 198 196 200 220 247 173 191 219 199 214 229 229 240 219 230 243 243 240 230 231 214 239 75 144 322 328 329 322 290 307 323 328 330 328 325 328 327 315 289 281 291 283 272
244 214 207 242 255 253 239 243 272 234 226 238 234 231 205 221 232 234 227 222 240 246 206 57 155 291 320 332 336 311 308 322 325 326 327 329 335 338 339 332 323 302 284 273
225 191 215 248 266 292 270 245 248 246 237 249 266 240 215 208 228 220 216 216 225 244 241 187 224 261 291 320 329 326 323 331 334 327 327 329 334 332 336 341 333 318 303 292
219 203 212 240 233 224 248 247 233 224 235 236 234 250 246 205 210 208 215 206 205 217 209 241 265 264 285 305 316 320 324 328 328 328 328 326 331 334 336 338 340 343 335 333
Height
1508 1512 1513 1511 1511 1511 1512 1513 1513 1509 1506 1508 1507 1503 1499 1498 1498 1497 1496 1496 1496 1496 1498 1499 1501 1502 1504 1505 1506 1507 1509 1510 1512 1513 1514 1514 1515 1516 1517 1518 1519 1520 1521 1522
1511 1512 1508 1508 1509 1510 1512 1513 1512 1508 1506 1507 1506 1502 1496 1494 1493 1492 1491 1491 1491 1492 1493 1495 1497 1498 1500 1501 1502 1504 1505 1507 1508 1509 1510 1511 1512 1513 1514 1515 1516 1516 1518 1519
1508 1506 1505 1507 1508 1510 1510 1512 1510 1510 1507 1506 1507 1501 1495 1491 1489 1488 1487 1487 1487 1488 1489 1491 1493 1494 1496 1497 1499 1500 1502 1503 1505 1505 1506 1508 1509 1509 1510 1511 1512 1513 1514 1515
1507 1504 1504 1505 1506 1508 1509 1506 1507 1508 1511 1513 1510 1508 1494 1490 1488 1486 1484 1483 1483 1484 1486 1487 1489 1490 1492 1494 1496 1497 1498 1500 1501 1502 1503 1503 1504 1505 1506 1508 1509 1510 1511 1511
1505 1503 1503 1503 1503 1504 1505 1505 1507 1507 1510 1514 1511 1511 1495 1490 1487 1482 1481 1480 1480 1481 1483 1484 1485 1487 1489 1490 1492 1493 1495 1496 1497 1498 1499 1500 1501 1502 1504 1505 1506 1506 1507 1508
1503 1501 1501 1501 1501 1502 1504 1506 1508 1511 1513 1511 1506 1509 1496 1489 1482 1479 1479 1478 1478 1479 1480 1481 1483 1484 1486 1487 1488 1490 1491 1492 1493 1494 1495 1496 1498 1498 1499 1500 1502 1502 1503 1504
1504 1501 1500 1500 1501 1503 1504 1510 1513 1511 1512 1505 1500 1501 1491 1481 1478 1477 1477 1477 1477 1477 1478 1479 1480 1481 1482 1484 1485 1486 1487 1488 1489 1490 1491 1492 1494 1495 1495 1496 1497 1498 1499 1500
1506 1503 1499 1498 1499 1501 1504 1505 1509 1510 1510 1505 1500 1496 1484 1478 1476 1475 1476 1476 1476 1476 1476 1477 1478 1478 1479 1480 1481 1482 1483 1484 1485 1486 1487 1488 1490 1490 1491 1493 1494 1494 1495 1495
1504 1501 1497 1496 1496 1498 1502 1504 1503 1510 1512 1509 1501 1493 1484 1476 1476 1476 1476 1476 1475 1475 1475 1475 1476 1476 1476 1477 1478 1479 1479 1480 1481 1482 1483 1484 1485 1486 1487 1488 1490 1490 1491 1492
1500 1503 1499 1497 1497 1497 1498 1500 1506 1508 1507 1504 1497 1492 1483 1477 1476 1476 1476 1475 1474 1474 1474 1474 1473 1473 1474 1475 1475 1476 1477 1477 1478 1479 1479 1480 1481 1482 1483 1484 1484 1485 1486 1487
1499 1503 1501 1499 1498 1496 1499 1500 1500 1503 1504 1503 1500 1486 1476 1474 1473 1474 1474 1473 1473 1473 1472 1472 1472 1472 1472 1473 1473 1473 1473 1474 1474 1475 1475 1476 1477 1478 1478 1479 1480 1480 1481 1482
1498 1502 1503 1498 1494 1493 1493 1494 1498 1500 1500 1501 1496 1486 1472 1473 1472 1472 1472 1472 1472 1471 1471 1470 1470 1470 1470 1470 1470 1470 1470 1470 1470 1471 1471 1472 1473 1473 1473 1474 1475 1475 1476 1477
1496 1500 1501 1495 1496 1496 1494 1493 1494 1496 1498 1500 1497 1484 1474 1473 1472 1471 1471 1471 1471 1470 1470 1469 1468 1468 1467 1467 1467 1467 1467 1467 1467 1467 1467 1467 1468 1468 1468 1469 1469 1470 1471 1472
1492 1497 1496 1491 1485 1488 1491 1490 1491 1494 1495 1493 1486 1477 1473 1472 1471 1470 1470 1469 1469 1469 1468 1467 1466 1466 1465 1465 1465 1464 1463 1463 1463 1463 1463 1463 1463 1463 1463 1464 1464 1465 1466 1466
1491 1494 1493 1488 1485 1485 1485 1484 1486 1487 1484 1484 1476 1474 1468 1468 1468 1467 1467 1467 1467 1466 1466 1465 1464 1463 1463 1463 1462 1461 1460 1460 1460 1459 1459 1459 1459 1459 1459 1459 1459 1460 1461 1461
1490 1492 1492 1489 1483 1484 1482 1479 1479 1479 1479 1477 1473 1469 1464 1464 1465 1465 1465 1464 1464 1463 1463 1462 1462 1461 1460 1460 1459 1458 1457 1457 1456 1456 1455 1455 1455 1455 1454 1454 1454 1455 1455 1456
1490 1492 1492 1488 1485 1482 1479 1471 1471 1472 1471 1471 1468 1462 1461 1462 1462 1461 1461 1461 1461 1461 1460 1460 1459 1458 1458 1457 1456 1455 1454 1454 1453 1452 1452 1451 1451 1450 1450 1450 1450 1450 1450 1450
1486 1489 1491 1491 1489 1485 1467 1464 1463 1464 1463 1463 1460 1458 1458 1458 1458 1458 1458 1458 1457 1458 1457 1457 1456 1455 1455 1454 1454 1453 1452 1451 1449 1449 1448 1447 1447 1446 1446 1445 1445 1445 1445 1445
1480 1484 1488 1489 1489 1479 1467 1462 1462 1463 1460 1457 1458 1456 1456 1456 1456 1455 1455 1455 1455 1454 1454 1453 1453 1452 1452 1451 1450 1449 1448 1447 1446 1445 1444 1443 1443 1442 1441 1441 1441 1440 1441 1441
1479 1480 1485 1486 1485 1478 1461 1459 1458 1461 1460 1455 1454 1454 1454 1455 1457 1453 1452 1452 1452 1452 1451 1450 1450 1449 1448 1448 1447 1446 1445 1444 1442 1441 1440 1440 1439 1438 1437 1437 1436 1436 1436 1436
1481 1482 1482 1482 1480 1470 1459 1457 1458 1463 1456 1453 1451 1451 1452 1452 1451 1450 1449 1449 1448 1448 1448 1447 1446 1446 1445 1444 1444 1443 1442 1440 1439 1438 1437 1436 1435 1434 1433 1433 1432 1432 1432 1431
1474 1478 1479 1478 1477 1467 1455 1456 1458 1454 1451 1450 1449 1449 1449 1449 1448 1447 1446 1446 1445 1445 1444 1444 1443 1443 1442 1441 1441 1439 1438 1438 1436 1435 1433 1432 1431 1430 1429 1429 1428 1428 1428 1427
1469 1466 1465 1465 1460 1453 1451 1451 1450 1450 1449 1448 1448 1447 1447 1446 1445 1445 1444 1443 1442 1442 1441 1441 1440 1440 1439 1439 1438 1436 1436 1435 1433 1432 1430 1429 1428 1427 1426 1425 1425 1425 1424 1424
1463 1460 1461 1460 1453 1450 1449 1449 1448 1448 1447 1447 1446 1445 1444 1444 1443 1442 1441 1441 1440 1439 1439 1438 1438 1437 1436 1436 1435 1434 1433 1432 1431 1429 1428 1426 1425 1424 1423 1422 1422 1421 1421 1421
1456 1457 1457 1454 1450 1448 1446 1445 1446 1445 1445 1444 1444 1443 1442 1441 1440 1439 1438 1438 1438 1437 1437 1436 1435 1435 1434 1433 1432 1431 1430 1429 1428 1426 1425 1424 1422 1421 1420 1420 1419 1418 1418 1418
1450 1452 1452 1447 1445 1445 1443 1443 1443 1442 1441 1441 1441 1440 1439 1438 1437 1437 1436 1436 1435 1435 1434 1433 1433 1432 1432 1431 1430 1429 1428 1427 1425 1424 1423 1421 1420 1419 1418 1417 1416 1415 1415 1414